Regional Weather Roundup
Issued by NWS

Home | Current Version | Previous Version | Graphics & Text | Print | Product List | Glossary On
Versions: 1 2 3 4 5 6 7 8 9 10 11 12 13 14 15 16 17 18 19 20 21 22 23 24 25 26 27 28 29 30 31 32 33 34 35 36 37 38 39 40 41 42 43 44 45 46 47 48 49 50
806
ASUS43 KOAX 210302
RWRNE

WEATHER ROUNDUP FOR NEBRASKA
NATIONAL WEATHER SERVICE OMAHA NE
900 PM CST MON NOV 20 2017

NOTES: SATELLITE DATA IS BEING USED TO AUGMENT CLOUD COVER ABOVE
       12000 FEET.
       "FAIR" INDICATES FEW OR NO CLOUDS BELOW 12,000 FEET WITH NO
       SIGNIFICANT WEATHER AND/OR OBSTRUCTIONS TO VISIBILITY.


NEZ001>004-019>022-054>056-210400-
NEBRASKA PANHANDLE

CITY           SKY/WX    TMP DP  RH WIND       PRES   REMARKS
SCOTTSBLUFF    CLOUDY    48  17  29 CALM      29.80R
ALLIANCE       CLOUDY    39  20  46 W13       29.78R WCI  31
CHADRON        CLOUDY    34  23  64 SW5       29.76R WCI  30
GORDON         FAIR      38  23  55 W8        29.74S WCI  32
KIMBALL        CLOUDY    54  12  19 W21G26    29.83S
SIDNEY         CLOUDY    49  20  31 W9        29.82R
$$

NEZ057>060-069>072-079>082-210400-
SOUTHWEST NEBRASKA

CITY           SKY/WX    TMP DP  RH WIND       PRES   REMARKS
NORTH PLATTE   CLOUDY    42  26  53 NW5       29.76R
IMPERIAL       CLOUDY    53  19  26 N12       29.78S
LEXINGTON      CLOUDY    45  26  46 NW10      29.75R
MCCOOK         CLOUDY    49  24  37 NW6       29.76R
OGALLALA       CLOUDY    50  21  31 NW10      29.78R
$$

NEZ005>010-023>029-035>040-094-210400-
NORTH CENTRAL NEBRASKA

CITY           SKY/WX    TMP DP  RH WIND       PRES   REMARKS
VALENTINE      CLOUDY    38  22  52 W8        29.73R WCI  32
AINSWORTH      CLOUDY    38  22  53 NW3       29.73R
BROKEN BOW     CLOUDY    48  21  34 N7        29.73R
O`NEILL        CLOUDY    45  22  40 NW7       29.71R
ORD            CLOUDY    37  24  59 NW7       29.71R WCI  32
THEDFORD       CLOUDY    37  22  55 W5        29.75R WCI  33
$$

NEZ041-046>049-061>064-073>077-083>087-210400-
SOUTH CENTRAL NEBRASKA

CITY           SKY/WX    TMP DP  RH WIND       PRES   REMARKS
GRAND ISLAND   CLOUDY    41  25  53 W3        29.70R
AURORA         CLOUDY    41  25  51 NW3       29.70R
HASTINGS       CLOUDY    48  23  37 NW3       29.70R
HEBRON         CLOUDY    47  28  46 CALM      29.69S
HOLDREGE       CLOUDY    48  26  41 NW8       29.72R
KEARNEY        CLOUDY    47  24  40 NW9       29.71R
YORK           CLOUDY    39  27  60 CALM      29.70R
$$

NEZ011>018-030>034-042>045-210400-
NORTHEAST NEBRASKA

CITY           SKY/WX    TMP DP  RH WIND       PRES   REMARKS
NORFOLK        CLOUDY    37  25  61 W7        29.68R WCI  32
ALBION         CLOUDY    34  24  64 NW7       29.70R WCI  28
BLAIR          CLOUDY    46  29  51 SW6       29.66R
COLUMBUS       CLOUDY    33  24  69 W3        29.69R
FREMONT        CLOUDY    41  29  62 W5        29.67R
TEKAMAH        CLOUDY    37  26  64 W3        29.65R
WAYNE          CLOUDY    32  26  77 SW3       29.66S
$$

NEZ050>053-065>068-078-088>093-210400-
SOUTHEAST NEBRASKA

CITY           SKY/WX    TMP DP  RH WIND       PRES   REMARKS
LINCOLN        CLEAR     47  27  45 SW5       29.69R
OMAHA EPPLEY   CLOUDY    45  28  51 SE6       29.66R
BEATRICE       CLOUDY    45  27  49 CALM      29.69R
FALLS CITY     CLEAR     54  27  35 SW15G22   29.68F
NEBRASKA CITY  CLEAR     47  29  49 SW12      29.67S
PLATTSMOUTH    PTCLDY    48  29  48 SW9       29.66R
$$

NEZ044-045-051>053-067-210400-
OMAHA AREA

CITY           SKY/WX    TMP DP  RH WIND       PRES   REMARKS
OMAHA EPPLEY   CLOUDY    45  28  51 SE6       29.66R
BLAIR          CLOUDY    46  29  51 SW6       29.66R
FREMONT        CLOUDY    41  29  62 W5        29.67R
MILLARD        CLOUDY    40  30  68 CALM      29.67R
OFFUTT AFB     CLOUDY    33  27  76 CALM      29.65S
PLATTSMOUTH    PTCLDY    48  29  48 SW9       29.66R
WAHOO          FAIR      45  28  50 W3        29.66R
$$




USA.gov is the U.S. government's official web portal to all federal, state and local government web resources and services.